Delta, CO

12:44 PM MDT on March 27, 2017 (GMT -0600)
Delta

Weather History for KAJZ - February, 2014

Change the Weather History Date:

Monday, February 24, 2014

  Actual Average (KMTJ) Record (KMTJ)
Temperature  
Mean Temperature 46 °F -  
Max Temperature 64 °F 42 °F 61 °F (2009)
Min Temperature 27 °F 22 °F 9 °F (2013)
Degree Days  
Heating Degree Days 20    
Moisture  
Dew Point 16 °F    
Average Humidity 37    
Maximum Humidity 67    
Minimum Humidity 11    
Precipitation  
Precipitation 0.00 in - - ()
Sea Level Pressure  
Sea Level Pressure 30.08 in    
Wind  
Wind Speed 4 mph (NE)    
Max Wind Speed 12 mph    
Max Gust Speed 17 mph    
Visibility 10 miles    
Events      
Averages and records for this station are not official NWS values.
T = Trace of Precipitation, MM = Missing Value Source: NWS Daily Summary

Daily Weather History Graph

Daily Weather History Graph

Search for Another Location

Airport or City:

Trip Planner

Search our weather history database for the weather conditions in past years. The results will help you decide how hot, cold, wet, or windy it might be!

Date:

Astronomy

Feb. 24, 2014 Rise Set
Actual Time 6:51 AM MST 5:59 PM MST
Civil Twilight 6:24 AM MST 6:26 PM MST
Nautical Twilight 5:53 AM MST 6:57 PM MST
Astronomical Twilight 5:23 AM MST 7:28 PM MST
Moon 2:51 AM MST (2/24) 1:05 PM MST (2/24)
Length of Visible Light 12h 02m
Length of Day
11h 08m
Waning Crescent, 27% of the Moon is Illuminated
Feb 24
Waning Crescent
Mar 1
New
Mar 8
First Quarter
Mar 16
Full
Mar 23
Last Quarter

Hourly Weather History & Observations

Time (MST) Temp. Windchill Dew Point Humidity Pressure Visibility Wind Dir Wind Speed Gust Speed Precip Events Conditions
12:15 AM 35.2 °F 29.5 °F 17.6 °F 49% 30.08 in 10.0 mi ENE 6.9 mph - N/A   Clear
12:35 AM 35.6 °F 28.6 °F 17.8 °F 48% 30.08 in 10.0 mi NE 9.2 mph - N/A   Clear
1:15 AM 34.7 °F 30.6 °F 17.6 °F 50% 30.09 in 10.0 mi NE 4.6 mph - N/A   Clear
1:35 AM 32.4 °F 27.9 °F 17.4 °F 54% 30.09 in 10.0 mi NE 4.6 mph - N/A   Clear
1:55 AM 31.6 °F 27.0 °F 17.6 °F 56% 30.09 in 10.0 mi NNE 4.6 mph - N/A   Clear
2:15 AM 31.1 °F 24.5 °F 17.8 °F 58% 30.09 in 10.0 mi NE 6.9 mph - N/A   Clear
2:35 AM 31.1 °F 25.4 °F 17.6 °F 57% 30.09 in 10.0 mi ENE 5.8 mph - N/A   Clear
2:55 AM 30.0 °F 23.2 °F 17.2 °F 59% 30.09 in 10.0 mi NE 6.9 mph - N/A   Clear
3:15 AM 32.2 °F 24.4 °F 17.4 °F 55% 30.09 in 10.0 mi ENE 9.2 mph - N/A   Clear
3:35 AM 32.4 °F 26.9 °F 17.6 °F 55% 30.09 in 10.0 mi NE 5.8 mph - N/A   Clear
3:55 AM 31.6 °F - 17.6 °F 56% 30.09 in 10.0 mi Calm Calm - N/A   Clear
4:35 AM 30.9 °F - 18.9 °F 61% 30.10 in 10.0 mi Calm Calm - N/A   Clear
4:55 AM 30.2 °F - 18.3 °F 61% 30.10 in 10.0 mi Calm Calm - N/A   Clear
5:15 AM 30.0 °F 25.2 °F 17.6 °F 60% 30.10 in 10.0 mi East 4.6 mph - N/A   Clear
5:35 AM 28.2 °F 24.4 °F 17.6 °F 64% 30.11 in 10.0 mi NNE 3.5 mph - N/A   Clear
5:55 AM 27.1 °F 23.2 °F 16.7 °F 65% 30.11 in 10.0 mi NE 3.5 mph - N/A   Clear
6:15 AM 29.7 °F 23.7 °F 18.1 °F 62% 30.11 in 10.0 mi ENE 5.8 mph - N/A   Clear
6:35 AM 28.4 °F 24.6 °F 17.6 °F 64% 30.11 in 10.0 mi ENE 3.5 mph - N/A   Clear
6:55 AM 28.4 °F - 17.6 °F 64% 30.12 in 10.0 mi Calm Calm - N/A   Clear
7:15 AM 27.1 °F - 17.6 °F 67% 30.12 in 10.0 mi Calm Calm - N/A   Clear
7:35 AM 29.7 °F - 19.4 °F 66% 30.13 in 10.0 mi Calm Calm - N/A   Clear
7:55 AM 30.9 °F 27.5 °F 19.8 °F 63% 30.14 in 10.0 mi East 3.5 mph - N/A   Clear
8:15 AM 33.1 °F - 19.9 °F 59% 30.14 in 10.0 mi Calm Calm - N/A   Clear
8:35 AM 36.0 °F - 19.9 °F 52% 30.15 in 10.0 mi Calm Calm - N/A   Clear
8:55 AM 36.3 °F - 21.0 °F 54% 30.14 in 10.0 mi Calm Calm - N/A   Clear
9:15 AM 40.5 °F 38.4 °F 19.9 °F 44% 30.14 in 10.0 mi East 3.5 mph - N/A   Clear
9:35 AM 42.1 °F 40.2 °F 19.9 °F 41% 30.14 in 10.0 mi East 3.5 mph - N/A   Clear
9:55 AM 43.9 °F - 20.5 °F 39% 30.14 in 10.0 mi Calm Calm - N/A   Scattered Clouds
10:15 AM 45.7 °F - 20.5 °F 37% 30.14 in 10.0 mi Calm Calm - N/A   Mostly Cloudy
10:35 AM 48.0 °F - 20.1 °F 33% 30.14 in 10.0 mi ENE 4.6 mph - N/A   Mostly Cloudy
10:55 AM 50.7 °F - 18.9 °F 28% 30.13 in 10.0 mi ENE 3.5 mph - N/A   Scattered Clouds
11:15 AM 52.2 °F - 19.2 °F 27% 30.13 in 10.0 mi Calm Calm - N/A   Clear
11:35 AM 53.8 °F - 18.5 °F 25% 30.12 in 10.0 mi Calm Calm - N/A   Clear
11:55 AM 55.4 °F - 17.4 °F 23% 30.11 in 10.0 mi SE 4.6 mph - N/A   Clear
12:15 PM 57.4 °F - 17.6 °F 21% 30.10 in 10.0 mi ESE 3.5 mph - N/A   Clear
12:35 PM 58.3 °F - 16.0 °F 19% 30.09 in 10.0 mi Calm Calm - N/A   Clear
12:55 PM 59.2 °F - 14.4 °F 17% 30.07 in 10.0 mi Calm Calm - N/A   Clear
1:15 PM 60.1 °F - 13.8 °F 16% 30.07 in 10.0 mi Calm Calm - N/A   Clear
1:35 PM 61.7 °F - 13.8 °F 15% 30.05 in 10.0 mi West 3.5 mph - N/A   Clear
1:55 PM 62.6 °F - 12.6 °F 14% 30.05 in 10.0 mi West 4.6 mph - N/A   Clear
2:15 PM 63.1 °F - 12.4 °F 14% 30.04 in 10.0 mi WSW 4.6 mph - N/A   Clear
2:35 PM 64.2 °F - 11.8 °F 13% 30.03 in 10.0 mi SW 11.5 mph 17.3 mph N/A   Clear
2:55 PM 64.8 °F - 10.8 °F 12% 30.03 in 10.0 mi WSW 11.5 mph - N/A   Clear
3:15 PM 64.9 °F - 9.7 °F 12% 30.03 in 10.0 mi SW 3.5 mph - N/A   Clear
3:35 PM 64.8 °F - 10.0 °F 12% 30.03 in 10.0 mi WNW 5.8 mph - N/A   Clear
3:55 PM 64.8 °F - 9.1 °F 11% 30.03 in 10.0 mi West 5.8 mph - N/A   Clear
4:15 PM 64.4 °F - 9.1 °F 11% 30.03 in 10.0 mi West 6.9 mph - N/A   Clear
4:55 PM 63.5 °F - 8.6 °F 12% 30.02 in 10.0 mi WNW 8.1 mph - N/A   Clear
5:15 PM 63.0 °F - 7.7 °F 11% 30.02 in 10.0 mi West 6.9 mph - N/A   Clear
5:35 PM 61.7 °F - 8.6 °F 12% 30.03 in 10.0 mi WNW 4.6 mph - N/A   Clear
5:55 PM 60.1 °F - 8.6 °F 13% 30.03 in 10.0 mi WNW 4.6 mph - N/A   Clear
6:15 PM 57.2 °F - 9.5 °F 15% 30.04 in 10.0 mi Calm Calm - N/A   Clear
6:35 PM 51.6 °F - 12.4 °F 21% 30.04 in 10.0 mi Calm Calm - N/A   Clear
6:55 PM 52.2 °F - 14.7 °F 23% 30.05 in 10.0 mi South 4.6 mph - N/A   Clear
7:15 PM 50.5 °F - 18.0 °F 28% 30.05 in 10.0 mi Calm Calm - N/A   Clear
7:35 PM 50.5 °F - 17.8 °F 27% 30.06 in 10.0 mi Calm Calm - N/A   Clear
7:55 PM 47.5 °F - 17.6 °F 30% 30.06 in 10.0 mi Calm Calm - N/A   Clear
8:15 PM 46.9 °F - 15.8 °F 29% 30.07 in 10.0 mi Calm Calm - N/A   Clear
8:35 PM 46.0 °F - 14.7 °F 28% 30.07 in 10.0 mi Calm Calm - N/A   Clear
8:55 PM 45.9 °F 44.6 °F 16.2 °F 30% 30.07 in 10.0 mi SE 3.5 mph - N/A   Clear
9:15 PM 43.7 °F 42.1 °F 14.0 °F 30% 30.08 in 10.0 mi SE 3.5 mph - N/A   Clear
9:55 PM 40.5 °F - 14.5 °F 35% 30.09 in 10.0 mi Calm Calm - N/A   Clear
10:15 PM 41.4 °F - 16.9 °F 37% 30.09 in 10.0 mi Calm Calm - N/A   Clear
10:35 PM 39.0 °F - 17.4 °F 42% 30.09 in 10.0 mi Calm Calm - N/A   Clear
11:15 PM 38.5 °F - 19.0 °F 46% 30.08 in 10.0 mi Calm Calm - N/A   Clear
11:35 PM 35.1 °F - 18.7 °F 51% 30.08 in 10.0 mi Calm Calm - N/A   Clear